Погода в Воротынске

Россия / Калужская область     54°25′47″N   36°02′43″E
темп.,
°C
ветер,
м/с
пор.,
м/с
влажн.,
%
обл.,
%
осадки,
мм/ч
давл.,
гПа
погр.,
м
20 января, чт
чт2000:00−8ююз51095100 0.1 1013245
03:00−6ююз51294100 0.1 1012322
06:00−5ююз61294100 0.0 1009377
09:00−4ююз61393100 0.1 1008460
12:00−3ююз71493100 0.1 1006558
15:00−3ю71493100 0.1 1004659
18:00−4ю81591100 0.1 1002710
21:00−3ю81592100 0.3 1001717
21 января, пт
пт2100:00−3ю71395100 0.5 1001602
03:00−3ю61193100 0.8 1001423
06:00−4ю51094100 0.0 999402
09:00−4ююв4995100 0.1 998338
12:00−3ююв4897100 0.6 997405
15:00−3юз3687100 1.3 996453
18:00−9ююв369547 0.0 99774
21:00−12юв359894 0.0 99860
22 января, сб
сб2200:00−11вюв3898100 0.0 998133
03:00−7вюв379691 0.3 998190
06:00−6ююв2697100 0.5 999219
09:00−6ю369694 0.9 1002205
12:00−6ю359489 0.1 1005294
15:00−6ююв249482 0.2 1008197
18:00−13ююв2210078 0.0 101110
21:00−15юв1110099 0.1 10149
23 января, вс
вс2300:00−15в1110096 0.1 10169
03:00−14в119972 0.1 10189
06:00−17в1110085 0.1 10209
09:00−18св1110095 0.1 10239
12:00−10св129584 0.1 1025115
15:00−8ссв239588 0.1 1026156
18:00−16ссв2210085 0.0 102913
21:00−18св22100100 0.1 103116
24 января, пн
пн2400:00−20св22100100 0.0 103218
03:00−20ссв23100100 0.1 103229
06:00−19с35100100 0.0 103271
09:00−15с499993 0.1 1031179
12:00−10ссв489396 0.1 1030265
15:00−8ссв359490 0.3 1029292
18:00−14ссв239980 0.0 102839
21:00−17с22100100 0.1 102813